| time (UTC) | temp C | wind direction | speed KPH | gust KPH | rain 1hr cm | rain 24hr cm | rain mn cm | humidity % | barometer mb |
| 20260508063035 | 8 | 355 | 0.0 | 3.2 | 0.00 | 0.00 | 0.00 | 68 | 1016.7 |
| 20260508061533 | 8 | 355 | 0.0 | 3.2 | 0.00 | 0.00 | 0.00 | 65 | 1016.6 |
| 20260508060029 | 9 | 355 | 0.0 | 4.8 | 0.00 | 0.00 | 0.00 | 64 | 1016.6 |
| 20260508054527 | 9 | 51 | 1.6 | 4.8 | 0.00 | 0.00 | 0.00 | 66 | 1016.4 |
| 20260508053026 | 9 | 300 | 1.6 | 9.7 | 0.00 | 0.00 | 0.00 | 67 | 1016.1 |
| 20260508051525 | 9 | 293 | 0.0 | 4.8 | 0.00 | 0.00 | 0.00 | 68 | 1015.9 |
| 20260508050024 | 9 | 342 | 0.0 | 3.2 | 0.00 | 0.00 | 0.00 | 72 | 1015.5 |
| 20260508044517 | 9 | 338 | 0.0 | 6.4 | 0.00 | 0.00 | 0.00 | 73 | 1015.6 |
| 20260508043016 | 9 | 329 | 0.0 | 4.8 | 0.00 | 0.00 | 0.00 | 72 | 1015.5 |
| 20260508041512 | 10 | 355 | 0.0 | 0.0 | 0.00 | 0.00 | 0.00 | 70 | 1015.4 |
| 20260508040011 | 10 | 346 | 0.0 | 3.2 | 0.00 | 0.00 | 0.00 | 71 | 1015.1 |
| 20260508034507 | 10 | 15 | 1.6 | 6.4 | 0.00 | 0.00 | 0.00 | 69 | 1015.1 |
| 20260508033003 | 11 | 329 | 1.6 | 8.0 | 0.00 | 0.00 | 0.00 | 67 | 1015.0 |
| 20260508031502 | 11 | 326 | 1.6 | 8.0 | 0.00 | 0.00 | 0.00 | 68 | 1014.7 |
| 20260508030058 | 11 | 5 | 1.6 | 8.0 | 0.00 | 0.00 | 0.00 | 67 | 1014.6 |
| 20260508024559 | 12 | 351 | 1.6 | 9.7 | 0.00 | 0.00 | 0.00 | 62 | 1014.4 |
| 20260508023056 | 11 | 296 | 3.2 | 8.0 | 0.00 | 0.00 | 0.00 | 64 | 1014.2 |
| 20260508021554 | 11 | 304 | 1.6 | 6.4 | 0.00 | 0.00 | 0.00 | 64 | 1014.0 |
| 20260508020053 | 12 | 360 | 0.0 | 8.0 | 0.00 | 0.00 | 0.00 | 64 | 1013.8 |
| 20260508014549 | 12 | 307 | 1.6 | 8.0 | 0.00 | 0.00 | 0.00 | 62 | 1013.7 |
| 20260508013046 | 12 | 338 | 0.0 | 8.0 | 0.00 | 0.00 | 0.00 | 64 | 1013.4 |
| 20260508011545 | 12 | 327 | 1.6 | 14.5 | 0.00 | 0.00 | 0.00 | 66 | 1013.1 |
| 20260508010043 | 12 | 314 | 0.0 | 4.8 | 0.00 | 0.00 | 0.00 | 66 | 1013.1 |
| 20260508004541 | 12 | 344 | 1.6 | 6.4 | 0.00 | 0.00 | 0.00 | 63 | 1012.8 |
| 20260508003040 | 13 | 107 | 0.0 | 3.2 | 0.00 | 0.00 | 0.00 | 62 | 1012.6 |
| 20260508001539 | 13 | 14 | 1.6 | 4.8 | 0.00 | 0.00 | 0.00 | 62 | 1012.6 |
| 20260508000037 | 13 | 270 | 4.8 | 14.5 | 0.00 | 0.00 | 0.00 | 60 | 1012.3 |
| 20260507234538 | 14 | 36 | 1.6 | 12.9 | 0.00 | 0.00 | 0.00 | 62 | 1012.2 |
| 20260507233038 | 15 | 14 | 1.6 | 12.9 | 0.00 | 0.00 | 0.00 | 59 | 1011.8 |
| 20260507231537 | 15 | 155 | 3.2 | 12.9 | 0.00 | 0.00 | 0.00 | 57 | 1011.6 |
| 20260507230035 | 15 | 234 | 3.2 | 20.9 | 0.00 | 0.00 | 0.00 | 57 | 1011.8 |
| 20260507224536 | 15 | 42 | 3.2 | 16.1 | 0.00 | 0.00 | 0.00 | 60 | 1011.4 |
| 20260507223034 | 15 | 355 | 1.6 | 20.9 | 0.00 | 0.00 | 0.00 | 62 | 1011.3 |
| 20260507221534 | 16 | 12 | 4.8 | 16.1 | 0.00 | 0.00 | 0.00 | 60 | 1011.1 |
| 20260507220032 | 17 | 93 | 3.2 | 12.9 | 0.00 | 0.00 | 0.00 | 58 | 1010.8 |
| 20260507214534 | 17 | 47 | 1.6 | 8.0 | 0.00 | 0.00 | 0.00 | 59 | 1010.8 |
| 20260507213032 | 17 | 180 | 6.4 | 20.9 | 0.00 | 0.00 | 0.00 | 57 | 1010.5 |
| 20260507211531 | 18 | 338 | 4.8 | 12.9 | 0.00 | 0.00 | 0.00 | 61 | 1010.4 |
| 20260507210044 | 18 | 325 | 1.6 | 8.0 | 0.00 | 0.00 | 0.00 | 61 | 1010.5 |
| 20260507204527 | 18 | 82 | 1.6 | 11.3 | 0.00 | 0.00 | 0.00 | 70 | 1010.2 |
| 20260507203022 | 17 | 159 | 3.2 | 11.3 | 0.00 | 0.00 | 0.00 | 73 | 1010.1 |
| 20260507201521 | 16 | 56 | 4.8 | 11.3 | 0.00 | 0.00 | 0.00 | 75 | 1010.2 |
| 20260507200019 | 16 | 115 | 1.6 | 12.9 | 0.00 | 0.00 | 0.00 | 77 | 1010.5 |
| 20260507194518 | 15 | 157 | 6.4 | 11.3 | 0.00 | 0.00 | 0.00 | 79 | 1010.9 |
| 20260507193016 | 15 | 146 | 6.4 | 12.9 | 0.00 | 0.00 | 0.00 | 78 | 1011.1 |
| 20260507191515 | 14 | 130 | 3.2 | 14.5 | 0.00 | 0.00 | 0.00 | 78 | 1011.5 |
| 20260507190014 | 13 | 128 | 4.8 | 11.3 | 0.00 | 0.00 | 0.00 | 78 | 1011.5 |
| 20260507184517 | 13 | 170 | 1.6 | 6.4 | 0.00 | 0.00 | 0.00 | 81 | 1011.9 |
| 20260507183012 | 13 | 167 | 3.2 | 4.8 | 0.00 | 0.00 | 0.00 | 79 | 1011.9 |
| 20260507181511 | 13 | 160 | 0.0 | 4.8 | 0.00 | 0.00 | 0.00 | 76 | 1011.8 |
| 20260507180009 | 13 | 197 | 0.0 | 6.4 | 0.00 | 0.00 | 0.00 | 81 | 1012.1 |
| 20260507174512 | 13 | 300 | 0.0 | 0.0 | 0.00 | 0.00 | 0.00 | 83 | 1012.1 |
| 20260507173009 | 13 | 300 | 0.0 | 6.4 | 0.00 | 0.00 | 0.00 | 79 | 1012.0 |
| 20260507171509 | 13 | 250 | 0.0 | 3.2 | 0.00 | 0.00 | 0.00 | 80 | 1012.2 |
| 20260507170010 | 13 | 355 | 0.0 | 1.6 | 0.00 | 0.00 | 0.00 | 81 | 1012.2 |
| 20260507164508 | 13 | 273 | 0.0 | 3.2 | 0.00 | 0.03 | 0.00 | 83 | 1012.4 |
| 20260507163007 | 13 | 332 | 0.0 | 4.8 | 0.00 | 0.03 | 0.00 | 84 | 1012.3 |
| 20260507161507 | 13 | 333 | 0.0 | 0.0 | 0.00 | 0.03 | 0.00 | 82 | 1012.5 |
| 20260507160008 | 13 | 333 | 0.0 | 0.0 | 0.00 | 0.03 | 0.00 | 80 | 1012.3 |
| 20260507154506 | 13 | 333 | 0.0 | 0.0 | 0.00 | 0.03 | 0.00 | 82 | 1012.7 |
| 20260507153008 | 13 | 333 | 0.0 | 3.2 | 0.00 | 0.03 | 0.00 | 82 | 1012.7 |
| 20260507151504 | 13 | 296 | 1.6 | 6.4 | 0.00 | 0.03 | 0.00 | 82 | 1012.5 |
| 20260507150002 | 13 | 281 | 0.0 | 6.4 | 0.00 | 0.03 | 0.00 | 82 | 1012.5 |
| 20260507144502 | 13 | 106 | 0.0 | 6.4 | 0.00 | 0.03 | 0.00 | 81 | 1012.5 |
| 20260507143111 | 13 | 145 | 0.0 | 4.8 | 0.00 | 0.03 | 0.00 | 82 | 1012.2 |
| 20260507141559 | 13 | 90 | 0.0 | 4.8 | 0.00 | 0.03 | 0.00 | 83 | 1012.2 |
| 20260507140057 | 13 | 323 | 1.6 | 14.5 | 0.00 | 0.03 | 0.00 | 81 | 1012.4 |
| 20260507134559 | 13 | 277 | 3.2 | 6.4 | 0.00 | 0.03 | 0.00 | 80 | 1012.7 |
| 20260507133057 | 13 | 5 | 0.0 | 6.4 | 0.00 | 0.03 | 0.00 | 80 | 1012.7 |
| 20260507131611 | 13 | 212 | 1.6 | 6.4 | 0.00 | 0.03 | 0.00 | 79 | 1012.7 |
| 20260507130052 | 13 | 16 | 0.0 | 6.4 | 0.00 | 0.03 | 0.00 | 81 | 1012.6 |
| 20260507124551 | 13 | 299 | 0.0 | 8.0 | 0.00 | 0.05 | 0.00 | 80 | 1012.6 |
| 20260507123050 | 13 | 5 | 1.6 | 4.8 | 0.00 | 0.05 | 0.00 | 82 | 1012.5 |
| 20260507121548 | 13 | 321 | 3.2 | 12.9 | 0.00 | 0.05 | 0.00 | 80 | 1012.3 |
| 20260507120047 | 13 | 182 | 0.0 | 4.8 | 0.00 | 0.05 | 0.00 | 81 | 1012.5 |
| 20260507114547 | 13 | 10 | 0.0 | 4.8 | 0.00 | 0.20 | 0.00 | 83 | 1012.2 |
| 20260507113044 | 13 | 329 | 3.2 | 8.0 | 0.00 | 0.20 | 0.00 | 83 | 1012.4 |
| 20260507111543 | 13 | 291 | 0.0 | 3.2 | 0.00 | 0.20 | 0.00 | 84 | 1012.2 |
| 20260507110041 | 13 | 332 | 0.0 | 0.0 | 0.00 | 0.20 | 0.00 | 85 | 1012.1 |
| 20260507104539 | 13 | 332 | 0.0 | 0.0 | 0.00 | 0.20 | 0.00 | 84 | 1011.9 |
| 20260507103036 | 13 | 332 | 0.0 | 3.2 | 0.00 | 0.20 | 0.00 | 84 | 1011.8 |
| 20260507101537 | 13 | 298 | 0.0 | 3.2 | 0.00 | 0.20 | 0.00 | 83 | 1011.5 |
| 20260507100036 | 13 | 341 | 0.0 | 0.0 | 0.00 | 0.20 | 0.00 | 84 | 1011.8 |
| 20260507094535 | 13 | 341 | 0.0 | 1.6 | 0.00 | 0.20 | 0.00 | 82 | 1012.0 |
| 20260507093032 | 14 | 341 | 0.0 | 3.2 | 0.00 | 0.20 | 0.00 | 81 | 1011.8 |
| 20260507091534 | 14 | 336 | 0.0 | 4.8 | 0.00 | 0.20 | 0.00 | 81 | 1011.8 |
| 20260507090029 | 15 | 28 | 0.0 | 1.6 | 0.00 | 0.20 | 0.00 | 81 | 1011.2 |
| 20260507084527 | 15 | 42 | 3.2 | 9.7 | 0.00 | 0.20 | 0.00 | 80 | 1011.6 |
| 20260507083028 | 15 | 63 | 0.0 | 14.5 | 0.00 | 0.20 | 0.00 | 82 | 1011.8 |
| 20260507081525 | 15 | 25 | 0.0 | 6.4 | 0.00 | 0.20 | 0.00 | 83 | 1011.7 |
| 20260507080030 | 15 | 148 | 1.6 | 6.4 | 0.00 | 0.20 | 0.00 | 82 | 1011.6 |
| 20260507074525 | 15 | 110 | 0.0 | 4.8 | 0.00 | 0.20 | 0.00 | 83 | 1011.6 |
| 20260507073022 | 15 | 159 | 1.6 | 8.0 | 0.00 | 0.20 | 0.00 | 82 | 1011.7 |
| 20260507071553 | 16 | 123 | 1.6 | 4.8 | 0.00 | 0.20 | 0.00 | 83 | 1011.5 |
| 20260507064521 | 16 | 146 | 3.2 | 12.9 | 0.00 | 0.20 | 0.00 | 83 | 1011.7 |